| time (UTC) | temp F | wind direction | speed MPH | gust MPH | rain 1hr in | rain 24hr in | rain mn in | humidity % | barometer mb |
| 20260903174540 | 77 | 294 | 8.0 | 14.0 | 0.00 | 0.04 | 0.04 | 82 | 1015.0 |
| 20260903174016 | 77 | 308 | 9.0 | 14.0 | 0.00 | 0.04 | 0.04 | 84 | 1015.1 |
| 20260903173522 | 76 | 311 | 6.0 | 12.0 | 0.00 | 0.04 | 0.04 | 85 | 1015.1 |
| 20260903173039 | 75 | 259 | 6.0 | 14.0 | 0.00 | 0.04 | 0.04 | 86 | 1014.8 |
| 20260903172519 | 73 | 233 | 5.0 | 14.0 | 0.00 | 0.04 | 0.04 | 89 | 1014.8 |
| 20260903172021 | 73 | 219 | 7.0 | 14.0 | 0.00 | 0.04 | 0.04 | 89 | 1014.6 |
| 20260903171539 | 72 | 248 | 6.0 | 11.0 | 0.00 | 0.04 | 0.04 | 90 | 1014.6 |
| 20260903171016 | 72 | 163 | 4.0 | 8.0 | 0.00 | 0.04 | 0.04 | 91 | 1014.5 |
| 20260903170519 | 72 | 163 | 4.0 | 9.0 | 0.00 | 0.04 | 0.04 | 91 | 1014.5 |
| 20260903170036 | 72 | 211 | 4.0 | 9.0 | 0.01 | 0.04 | 0.04 | 91 | 1014.6 |
| 20260903165515 | 72 | 130 | 3.0 | 7.0 | 0.01 | 0.04 | 0.04 | 92 | 1014.7 |
| 20260903165015 | 71 | 202 | 3.0 | 7.0 | 0.01 | 0.04 | 0.04 | 92 | 1014.6 |
| 20260903164540 | 71 | 221 | 2.0 | 7.0 | 0.01 | 0.04 | 0.04 | 92 | 1014.5 |
| 20260903164019 | 71 | 170 | 3.0 | 5.0 | 0.01 | 0.04 | 0.04 | 92 | 1014.5 |
| 20260903163518 | 71 | 177 | 2.0 | 5.0 | 0.01 | 0.04 | 0.04 | 92 | 1014.6 |
| 20260903163042 | 71 | 195 | 2.0 | 5.0 | 0.01 | 0.04 | 0.04 | 92 | 1014.7 |
| 20260903162524 | 71 | 216 | 2.0 | 7.0 | 0.01 | 0.04 | 0.04 | 92 | 1014.8 |
| 20260903162020 | 70 | 239 | 2.0 | 7.0 | 0.01 | 0.04 | 0.04 | 92 | 1015.1 |
| 20260903161537 | 70 | 281 | 2.0 | 8.0 | 0.01 | 0.04 | 0.04 | 92 | 1015.2 |
| 20260903161019 | 70 | 257 | 3.0 | 9.0 | 0.01 | 0.04 | 0.04 | 91 | 1015.5 |
| 20260903160520 | 70 | 207 | 4.0 | 9.0 | 0.01 | 0.04 | 0.04 | 91 | 1015.9 |
| 20260903160045 | 70 | 242 | 4.0 | 8.0 | 0.00 | 0.03 | 0.03 | 90 | 1015.9 |
| 20260903155522 | 70 | 288 | 3.0 | 12.0 | 0.00 | 0.04 | 0.03 | 89 | 1015.9 |
| 20260903155021 | 70 | 259 | 4.0 | 12.0 | 0.00 | 0.04 | 0.03 | 88 | 1016.1 |
| 20260903154549 | 70 | 278 | 6.0 | 12.0 | 0.01 | 0.04 | 0.03 | 88 | 1016.4 |
| 20260903154024 | 70 | 255 | 6.0 | 11.0 | 0.01 | 0.04 | 0.03 | 88 | 1016.4 |
| 20260903153520 | 70 | 245 | 5.0 | 11.0 | 0.01 | 0.04 | 0.03 | 88 | 1016.4 |
| 20260903153039 | 70 | 250 | 5.0 | 11.0 | 0.01 | 0.04 | 0.03 | 88 | 1016.6 |
| 20260903152521 | 70 | 284 | 4.0 | 8.0 | 0.02 | 0.04 | 0.03 | 88 | 1016.5 |
| 20260903152027 | 70 | 260 | 4.0 | 8.0 | 0.02 | 0.04 | 0.03 | 88 | 1016.5 |
| 20260903151539 | 70 | 221 | 4.0 | 7.0 | 0.02 | 0.04 | 0.03 | 88 | 1016.3 |
| 20260903151019 | 70 | 273 | 4.0 | 7.0 | 0.02 | 0.04 | 0.03 | 87 | 1016.1 |
| 20260903150521 | 70 | 255 | 3.0 | 7.0 | 0.02 | 0.04 | 0.03 | 88 | 1015.9 |
| 20260903150056 | 70 | 179 | 4.0 | 7.0 | 0.02 | 0.04 | 0.03 | 88 | 1015.5 |
| 20260903145520 | 70 | 187 | 2.0 | 6.0 | 0.03 | 0.04 | 0.03 | 90 | 1015.4 |
| 20260903145021 | 70 | 132 | 2.0 | 6.0 | 0.03 | 0.04 | 0.03 | 90 | 1015.5 |
| 20260903144541 | 70 | 173 | 1.0 | 2.0 | 0.02 | 0.03 | 0.02 | 89 | 1015.7 |
| 20260903144019 | 70 | 176 | 1.0 | 3.0 | 0.02 | 0.03 | 0.02 | 89 | 1015.7 |
| 20260903143526 | 70 | 237 | 2.0 | 4.0 | 0.02 | 0.03 | 0.02 | 88 | 1015.7 |
| 20260903143042 | 70 | 224 | 1.0 | 7.0 | 0.02 | 0.03 | 0.02 | 88 | 1015.6 |
| 20260903142521 | 70 | 254 | 3.0 | 7.0 | 0.01 | 0.02 | 0.01 | 87 | 1015.5 |
| 20260903142021 | 70 | 222 | 4.0 | 9.0 | 0.01 | 0.02 | 0.01 | 87 | 1015.5 |
| 20260903141538 | 70 | 210 | 2.0 | 11.0 | 0.01 | 0.02 | 0.01 | 88 | 1015.6 |
| 20260903141022 | 70 | 202 | 5.0 | 12.0 | 0.01 | 0.02 | 0.01 | 87 | 1015.6 |
| 20260903140519 | 70 | 192 | 6.0 | 12.0 | 0.01 | 0.02 | 0.01 | 88 | 1015.4 |
| 20260903140042 | 69 | 245 | 3.0 | 6.0 | 0.01 | 0.02 | 0.01 | 89 | 1015.4 |
| 20260903135520 | 69 | 173 | 3.0 | 6.0 | 0.00 | 0.01 | 0.00 | 91 | 1015.4 |
| 20260903135023 | 70 | 232 | 4.0 | 6.0 | 0.00 | 0.01 | 0.00 | 91 | 1015.3 |
| 20260903134545 | 69 | 263 | 3.0 | 9.0 | 0.00 | 0.01 | 0.00 | 93 | 1015.1 |
| 20260903134019 | 69 | 280 | 2.0 | 10.0 | 0.00 | 0.01 | 0.00 | 94 | 1014.9 |
| 20260903133519 | 69 | 206 | 4.0 | 10.0 | 0.00 | 0.01 | 0.00 | 94 | 1014.7 |
| 20260903133044 | 69 | 246 | 2.0 | 8.0 | 0.00 | 0.01 | 0.00 | 95 | 1014.7 |
| 20260903132520 | 70 | 211 | 4.0 | 9.0 | 0.00 | 0.01 | 0.00 | 96 | 1014.8 |
| 20260903132019 | 70 | 240 | 4.0 | 9.0 | 0.00 | 0.01 | 0.00 | 96 | 1014.6 |
| 20260903131549 | 70 | 173 | 4.0 | 9.0 | 0.00 | 0.01 | 0.00 | 96 | 1015.0 |
| 20260903131022 | 70 | 252 | 3.0 | 6.0 | 0.00 | 0.01 | 0.00 | 96 | 1014.9 |
| 20260903130524 | 69 | 284 | 1.0 | 4.0 | 0.00 | 0.01 | 0.00 | 96 | 1014.5 |
| 20260903130044 | 69 | 173 | 1.0 | 4.0 | 0.00 | 0.01 | 0.00 | 96 | 1014.6 |
| 20260903125521 | 69 | 220 | 1.0 | 5.0 | 0.00 | 0.01 | 0.00 | 96 | 1014.6 |
| 20260903125021 | 69 | 319 | 1.0 | 5.0 | 0.00 | 0.01 | 0.00 | 96 | 1014.1 |
| 20260903124542 | 69 | 313 | 2.0 | 5.0 | 0.00 | 0.01 | 0.00 | 96 | 1014.1 |
| 20260903124018 | 70 | 292 | 3.0 | 4.0 | 0.00 | 0.01 | 0.00 | 96 | 1014.2 |
| 20260903123518 | 70 | 49 | 0.0 | 2.0 | 0.00 | 0.01 | 0.00 | 96 | 1013.9 |
| 20260903123049 | 70 | 0 | 0.0 | 2.0 | 0.00 | 0.01 | 0.00 | 96 | 1014.0 |
| 20260903122526 | 70 | 67 | 0.0 | 2.0 | 0.00 | 0.01 | 0.00 | 96 | 1014.0 |
| 20260903122019 | 70 | 69 | 0.0 | 2.0 | 0.00 | 0.01 | 0.00 | 96 | 1013.8 |
| 20260903121555 | 70 | 0 | 0.0 | 0.0 | 0.00 | 0.01 | 0.00 | 96 | 1013.9 |
| 20260903121021 | 70 | 0 | 0.0 | 0.0 | 0.00 | 0.01 | 0.00 | 96 | 1013.8 |
| 20260903120521 | 70 | 0 | 0.0 | 2.0 | 0.00 | 0.01 | 0.00 | 96 | 1013.9 |
| 20260903120041 | 70 | 0 | 0.0 | 2.0 | 0.00 | 0.01 | 0.00 | 96 | 1013.9 |
| 20260903115520 | 69 | 0 | 0.0 | 2.0 | 0.00 | 0.01 | 0.00 | 96 | 1014.0 |
| 20260903115021 | 69 | 93 | 0.0 | 2.0 | 0.00 | 0.01 | 0.00 | 96 | 1014.0 |
| 20260903114543 | 69 | 55 | 1.0 | 2.0 | 0.00 | 0.01 | 0.00 | 96 | 1014.0 |
| 20260903114019 | 69 | 0 | 0.0 | 2.0 | 0.00 | 0.01 | 0.00 | 96 | 1013.9 |
| 20260903113519 | 69 | 138 | 0.0 | 1.0 | 0.00 | 0.01 | 0.00 | 96 | 1013.9 |
| 20260903113049 | 68 | 0 | 0.0 | 0.0 | 0.00 | 0.01 | 0.00 | 96 | 1013.9 |
| 20260903112525 | 69 | 0 | 0.0 | 2.0 | 0.00 | 0.01 | 0.00 | 96 | 1013.8 |
| 20260903112022 | 69 | 0 | 0.0 | 2.0 | 0.00 | 0.01 | 0.00 | 96 | 1014.0 |
| 20260903111544 | 69 | 138 | 0.0 | 2.0 | 0.00 | 0.01 | 0.00 | 96 | 1014.0 |
| 20260903111020 | 69 | 0 | 0.0 | 2.0 | 0.00 | 0.01 | 0.00 | 96 | 1014.0 |
| 20260903110520 | 69 | 138 | 0.0 | 2.0 | 0.00 | 0.01 | 0.00 | 96 | 1013.9 |
| 20260903110043 | 69 | 0 | 0.0 | 0.0 | 0.00 | 0.01 | 0.00 | 96 | 1014.0 |
| 20260903105523 | 69 | 0 | 0.0 | 0.0 | 0.00 | 0.01 | 0.00 | 96 | 1013.9 |
| 20260903105019 | 69 | 0 | 0.0 | 2.0 | 0.00 | 0.01 | 0.00 | 96 | 1013.9 |
| 20260903104551 | 69 | 0 | 0.0 | 2.0 | 0.00 | 0.01 | 0.00 | 96 | 1013.8 |
| 20260903104019 | 69 | 0 | 0.0 | 2.0 | 0.00 | 0.01 | 0.00 | 96 | 1013.9 |
| 20260903103519 | 69 | 0 | 0.0 | 2.0 | 0.00 | 0.01 | 0.00 | 96 | 1013.8 |
| 20260903103047 | 69 | 0 | 0.0 | 2.0 | 0.00 | 0.01 | 0.00 | 96 | 1013.8 |
| 20260903102519 | 68 | 0 | 0.0 | 2.0 | 0.00 | 0.01 | 0.00 | 95 | 1013.8 |
| 20260903102020 | 69 | 138 | 0.0 | 2.0 | 0.00 | 0.01 | 0.00 | 95 | 1014.0 |
| 20260903101549 | 69 | 138 | 0.0 | 2.0 | 0.00 | 0.01 | 0.00 | 95 | 1014.0 |
| 20260903101019 | 69 | 138 | 0.0 | 2.0 | 0.00 | 0.01 | 0.00 | 96 | 1014.0 |
| 20260903100518 | 69 | 138 | 0.0 | 2.0 | 0.00 | 0.01 | 0.00 | 96 | 1014.0 |
| 20260903100046 | 69 | 0 | 0.0 | 2.0 | 0.00 | 0.01 | 0.00 | 96 | 1014.1 |
| 20260903095520 | 69 | 0 | 0.0 | 2.0 | 0.00 | 0.01 | 0.00 | 96 | 1014.1 |
| 20260903095017 | 69 | 0 | 0.0 | 2.0 | 0.00 | 0.01 | 0.00 | 96 | 1014.1 |
| 20260903094552 | 69 | 138 | 0.0 | 2.0 | 0.00 | 0.01 | 0.00 | 96 | 1014.1 |
| 20260903094021 | 69 | 0 | 0.0 | 2.0 | 0.00 | 0.01 | 0.00 | 96 | 1014.1 |
| 20260903093521 | 69 | 0 | 0.0 | 2.0 | 0.00 | 0.01 | 0.00 | 95 | 1014.2 |
| 20260903093042 | 69 | 138 | 1.0 | 2.0 | 0.00 | 0.01 | 0.00 | 95 | 1014.0 |
| 20260903092519 | 69 | 0 | 0.0 | 1.0 | 0.00 | 0.01 | 0.00 | 95 | 1014.1 |
| 20260903092015 | 69 | 0 | 0.0 | 2.0 | 0.00 | 0.01 | 0.00 | 95 | 1014.0 |
| 20260903091551 | 69 | 138 | 0.0 | 2.0 | 0.00 | 0.01 | 0.00 | 95 | 1013.9 |
| 20260903091019 | 69 | 0 | 0.0 | 2.0 | 0.00 | 0.01 | 0.00 | 95 | 1014.0 |
| 20260903090519 | 68 | 138 | 0.0 | 2.0 | 0.00 | 0.01 | 0.00 | 95 | 1013.9 |
| 20260903090039 | 68 | 0 | 0.0 | 0.0 | 0.00 | 0.01 | 0.00 | 95 | 1013.9 |
| 20260903085519 | 68 | 0 | 0.0 | 0.0 | 0.00 | 0.01 | 0.00 | 95 | 1013.9 |
| 20260903085018 | 68 | 0 | 0.0 | 0.0 | 0.00 | 0.01 | 0.00 | 95 | 1013.8 |
| 20260903084534 | 68 | 0 | 0.0 | 0.0 | 0.00 | 0.01 | 0.00 | 95 | 1013.9 |
| 20260903084018 | 68 | 0 | 0.0 | 0.0 | 0.00 | 0.01 | 0.00 | 95 | 1013.8 |
| 20260903083517 | 68 | 0 | 0.0 | 2.0 | 0.00 | 0.01 | 0.00 | 95 | 1013.8 |
| 20260903083039 | 68 | 0 | 0.0 | 2.0 | 0.00 | 0.01 | 0.00 | 95 | 1013.9 |
| 20260903082519 | 68 | 0 | 0.0 | 0.0 | 0.00 | 0.01 | 0.00 | 95 | 1013.9 |
| 20260903082021 | 68 | 0 | 0.0 | 0.0 | 0.00 | 0.01 | 0.00 | 95 | 1013.8 |
| 20260903081540 | 68 | 0 | 0.0 | 0.0 | 0.00 | 0.01 | 0.00 | 95 | 1013.8 |
| 20260903081020 | 69 | 0 | 0.0 | 0.0 | 0.00 | 0.01 | 0.00 | 95 | 1013.9 |
| 20260903080517 | 68 | 0 | 0.0 | 0.0 | 0.00 | 0.01 | 0.00 | 95 | 1013.9 |
| 20260903080043 | 68 | 0 | 0.0 | 0.0 | 0.00 | 0.01 | 0.00 | 95 | 1014.0 |
| 20260903075521 | 68 | 0 | 0.0 | 2.0 | 0.00 | 0.01 | 0.00 | 95 | 1013.9 |
| 20260903075018 | 69 | 0 | 0.0 | 2.0 | 0.00 | 0.01 | 0.00 | 95 | 1014.0 |
| 20260903074539 | 68 | 138 | 0.0 | 0.0 | 0.00 | 0.01 | 0.00 | 95 | 1014.0 |
| 20260903074016 | 69 | 0 | 0.0 | 0.0 | 0.00 | 0.01 | 0.00 | 95 | 1014.1 |
| 20260903073516 | 69 | 0 | 0.0 | 0.0 | 0.00 | 0.01 | 0.00 | 95 | 1014.0 |
| 20260903073040 | 69 | 0 | 0.0 | 0.0 | 0.00 | 0.01 | 0.00 | 95 | 1014.0 |
| 20260903072521 | 69 | 0 | 0.0 | 0.0 | 0.00 | 0.01 | 0.00 | 95 | 1014.0 |
| 20260903072019 | 69 | 0 | 0.0 | 0.0 | 0.00 | 0.01 | 0.00 | 95 | 1013.9 |
| 20260903071542 | 69 | 0 | 0.0 | 0.0 | 0.00 | 0.01 | 0.00 | 95 | 1014.0 |
| 20260903071018 | 69 | 0 | 0.0 | 0.0 | 0.00 | 0.01 | 0.00 | 95 | 1014.0 |
| 20260903070520 | 69 | 0 | 0.0 | 1.0 | 0.00 | 0.01 | 0.00 | 95 | 1014.1 |
| 20260903070039 | 69 | 0 | 0.0 | 1.0 | 0.00 | 0.01 | 0.00 | 95 | 1014.2 |
| 20260903065521 | 69 | 0 | 0.0 | 1.0 | 0.00 | 0.01 | 0.00 | 95 | 1014.2 |
| 20260903065018 | 69 | 0 | 0.0 | 0.0 | 0.00 | 0.01 | 0.00 | 95 | 1014.2 |
| 20260903064534 | 69 | 0 | 0.0 | 0.0 | 0.00 | 0.01 | 0.00 | 95 | 1014.2 |
| 20260903064020 | 69 | 0 | 0.0 | 0.0 | 0.00 | 0.01 | 0.00 | 95 | 1014.2 |
| 20260903063522 | 69 | 0 | 0.0 | 0.0 | 0.00 | 0.01 | 0.00 | 95 | 1014.2 |
| 20260903063048 | 69 | 0 | 0.0 | 0.0 | 0.00 | 0.01 | 0.00 | 95 | 1014.2 |
| 20260903062520 | 69 | 0 | 0.0 | 0.0 | 0.00 | 0.01 | 0.00 | 95 | 1014.3 |
| 20260903062021 | 69 | 0 | 0.0 | 0.0 | 0.00 | 0.01 | 0.00 | 95 | 1014.4 |
| 20260903061549 | 69 | 0 | 0.0 | 2.0 | 0.00 | 0.01 | 0.00 | 95 | 1014.4 |
| 20260903061021 | 69 | 0 | 0.0 | 2.0 | 0.00 | 0.01 | 0.00 | 95 | 1014.4 |
| 20260903060519 | 69 | 138 | 0.0 | 2.0 | 0.00 | 0.01 | 0.00 | 95 | 1014.3 |
| 20260903060057 | 70 | 0 | 0.0 | 2.0 | 0.00 | 0.01 | 0.00 | 95 | 1014.5 |
| 20260903055517 | 70 | 138 | 0.0 | 2.0 | 0.00 | 0.01 | 0.00 | 95 | 1014.5 |
| 20260903055020 | 70 | 138 | 0.0 | 2.0 | 0.00 | 0.01 | 0.00 | 95 | 1014.5 |
| 20260903054541 | 70 | 0 | 0.0 | 2.0 | 0.00 | 0.01 | 0.00 | 95 | 1014.4 |
| 20260903054019 | 70 | 0 | 0.0 | 2.0 | 0.00 | 0.01 | 0.00 | 95 | 1014.5 |
| 20260903053520 | 70 | 0 | 0.0 | 2.0 | 0.00 | 0.01 | 0.00 | 95 | 1014.4 |
| 20260903053043 | 70 | 0 | 0.0 | 2.0 | 0.00 | 0.01 | 0.00 | 95 | 1014.4 |
| 20260903052524 | 70 | 138 | 0.0 | 2.0 | 0.00 | 0.01 | 0.00 | 95 | 1014.4 |
| 20260903052021 | 70 | 138 | 0.0 | 2.0 | 0.00 | 0.01 | 0.00 | 95 | 1014.5 |
| 20260903051544 | 70 | 138 | 0.0 | 2.0 | 0.00 | 0.01 | 0.00 | 95 | 1014.4 |
| 20260903051021 | 70 | 0 | 0.0 | 2.0 | 0.00 | 0.01 | 0.00 | 95 | 1014.3 |
| 20260903050520 | 70 | 138 | 0.0 | 2.0 | 0.00 | 0.01 | 0.00 | 94 | 1014.2 |
| 20260903050046 | 70 | 138 | 0.0 | 2.0 | 0.00 | 0.01 | 0.00 | 94 | 1014.2 |
| 20260903045520 | 70 | 132 | 1.0 | 2.0 | 0.00 | 0.01 | 0.01 | 94 | 1014.2 |
| 20260903045023 | 70 | 0 | 1.0 | 2.0 | 0.00 | 0.01 | 0.01 | 94 | 1014.3 |
| 20260903044540 | 70 | 159 | 1.0 | 2.0 | 0.00 | 0.01 | 0.01 | 94 | 1014.2 |
| 20260903044024 | 70 | 159 | 1.0 | 2.0 | 0.00 | 0.01 | 0.01 | 94 | 1014.2 |
| 20260903043518 | 70 | 155 | 0.0 | 2.0 | 0.00 | 0.01 | 0.01 | 94 | 1014.2 |
| 20260903043044 | 70 | 0 | 0.0 | 2.0 | 0.00 | 0.01 | 0.01 | 94 | 1014.2 |
| 20260903042518 | 70 | 116 | 1.0 | 2.0 | 0.00 | 0.01 | 0.01 | 94 | 1014.2 |
| 20260903042020 | 70 | 117 | 0.0 | 2.0 | 0.00 | 0.01 | 0.01 | 94 | 1014.2 |
| 20260903041539 | 70 | 84 | 0.0 | 2.0 | 0.00 | 0.01 | 0.01 | 94 | 1014.1 |
| 20260903041022 | 70 | 84 | 0.0 | 4.0 | 0.00 | 0.01 | 0.01 | 93 | 1014.0 |
| 20260903040521 | 70 | 38 | 1.0 | 4.0 | 0.00 | 0.01 | 0.01 | 93 | 1013.9 |
| 20260903040045 | 70 | 58 | 1.0 | 3.0 | 0.00 | 0.01 | 0.01 | 93 | 1013.9 |
| 20260903035523 | 71 | 43 | 1.0 | 3.0 | 0.00 | 0.01 | 0.01 | 93 | 1013.9 |
| 20260903035021 | 71 | 35 | 1.0 | 3.0 | 0.00 | 0.01 | 0.01 | 92 | 1013.9 |
| 20260903034541 | 71 | 44 | 2.0 | 4.0 | 0.00 | 0.01 | 0.01 | 92 | 1013.8 |
| 20260903034020 | 71 | 62 | 2.0 | 4.0 | 0.00 | 0.01 | 0.01 | 92 | 1013.8 |
| 20260903033520 | 72 | 59 | 2.0 | 3.0 | 0.00 | 0.01 | 0.01 | 92 | 1013.8 |
| 20260903033037 | 72 | 54 | 2.0 | 2.0 | 0.00 | 0.01 | 0.01 | 92 | 1013.8 |
| 20260903032524 | 72 | 0 | 0.0 | 2.0 | 0.00 | 0.01 | 0.01 | 91 | 1013.8 |
| 20260903032019 | 72 | 104 | 0.0 | 2.0 | 0.00 | 0.01 | 0.01 | 91 | 1013.8 |
| 20260903031541 | 72 | 104 | 0.0 | 2.0 | 0.00 | 0.01 | 0.01 | 91 | 1013.7 |
| 20260903031023 | 73 | 104 | 0.0 | 2.0 | 0.00 | 0.01 | 0.01 | 90 | 1013.7 |
| 20260903030516 | 74 | 0 | 0.0 | 0.0 | 0.00 | 0.01 | 0.01 | 90 | 1013.7 |
| 20260903030048 | 74 | 0 | 0.0 | 0.0 | 0.00 | 0.01 | 0.01 | 91 | 1013.7 |
| 20260903025517 | 73 | 0 | 0.0 | 0.0 | 0.00 | 0.01 | 0.01 | 91 | 1013.7 |
| 20260903025018 | 74 | 0 | 0.0 | 0.0 | 0.00 | 0.01 | 0.01 | 90 | 1013.7 |
| 20260903024537 | 74 | 0 | 0.0 | 0.0 | 0.00 | 0.01 | 0.01 | 90 | 1013.7 |
| 20260903024020 | 74 | 0 | 0.0 | 0.0 | 0.00 | 0.01 | 0.01 | 90 | 1013.7 |
| 20260903023525 | 74 | 0 | 0.0 | 0.0 | 0.00 | 0.01 | 0.01 | 91 | 1013.8 |
| 20260903023038 | 74 | 0 | 0.0 | 0.0 | 0.00 | 0.01 | 0.01 | 91 | 1013.6 |
| 20260903022517 | 74 | 0 | 0.0 | 0.0 | 0.00 | 0.01 | 0.01 | 90 | 1013.7 |
| 20260903022023 | 74 | 0 | 0.0 | 0.0 | 0.00 | 0.01 | 0.01 | 90 | 1013.8 |
| 20260903021546 | 74 | 0 | 0.0 | 0.0 | 0.00 | 0.01 | 0.01 | 89 | 1013.8 |
| 20260903021016 | 74 | 0 | 0.0 | 0.0 | 0.00 | 0.01 | 0.01 | 88 | 1013.8 |
| 20260903020518 | 75 | 0 | 0.0 | 0.0 | 0.00 | 0.01 | 0.01 | 88 | 1013.7 |
| 20260903020040 | 75 | 0 | 0.0 | 0.0 | 0.00 | 0.01 | 0.01 | 88 | 1013.7 |
| 20260903015519 | 75 | 0 | 0.0 | 0.0 | 0.00 | 0.01 | 0.01 | 88 | 1013.7 |
| 20260903015019 | 75 | 0 | 0.0 | 0.0 | 0.00 | 0.01 | 0.01 | 87 | 1013.6 |
| 20260903014550 | 75 | 0 | 0.0 | 2.0 | 0.00 | 0.01 | 0.01 | 87 | 1013.6 |
| 20260903014024 | 76 | 0 | 0.0 | 2.0 | 0.00 | 0.01 | 0.01 | 87 | 1013.6 |
| 20260903013522 | 76 | 0 | 0.0 | 2.0 | 0.00 | 0.01 | 0.01 | 86 | 1013.6 |
| 20260903013038 | 76 | 0 | 0.0 | 0.0 | 0.00 | 0.01 | 0.01 | 85 | 1013.5 |
| 20260903012519 | 77 | 0 | 0.0 | 0.0 | 0.00 | 0.01 | 0.01 | 85 | 1013.5 |
| 20260903012020 | 77 | 0 | 0.0 | 2.0 | 0.00 | 0.01 | 0.01 | 84 | 1013.4 |
| 20260903011546 | 77 | 0 | 0.0 | 2.0 | 0.00 | 0.01 | 0.01 | 84 | 1013.3 |
| 20260903011021 | 77 | 0 | 0.0 | 2.0 | 0.00 | 0.01 | 0.01 | 82 | 1013.2 |
| 20260903010522 | 78 | 83 | 0.0 | 2.0 | 0.00 | 0.01 | 0.01 | 81 | 1013.2 |
| 20260903010040 | 78 | 0 | 0.0 | 2.0 | 0.00 | 0.01 | 0.01 | 80 | 1013.2 |
| 20260903005516 | 79 | 0 | 0.0 | 2.0 | 0.00 | 0.01 | 0.01 | 80 | 1013.0 |
| 20260903005019 | 79 | 0 | 0.0 | 2.0 | 0.00 | 0.01 | 0.01 | 80 | 1013.0 |
| 20260903004539 | 79 | 0 | 0.0 | 0.0 | 0.00 | 0.01 | 0.01 | 79 | 1012.9 |
| 20260903004020 | 79 | 0 | 0.0 | 0.0 | 0.00 | 0.01 | 0.01 | 78 | 1012.9 |
| 20260903003534 | 79 | 0 | 0.0 | 0.0 | 0.00 | 0.01 | 0.01 | 78 | 1012.9 |
| 20260903003039 | 80 | 0 | 0.0 | 0.0 | 0.00 | 0.01 | 0.01 | 77 | 1012.9 |
| 20260903002519 | 81 | 0 | 0.0 | 0.0 | 0.00 | 0.01 | 0.01 | 75 | 1012.9 |
| 20260903002020 | 81 | 0 | 0.0 | 0.0 | 0.00 | 0.01 | 0.01 | 75 | 1012.8 |
| 20260903001537 | 81 | 0 | 0.0 | 2.0 | 0.00 | 0.01 | 0.01 | 75 | 1013.0 |
| 20260903001019 | 81 | 0 | 0.0 | 2.0 | 0.00 | 0.01 | 0.01 | 75 | 1013.0 |
| 20260903000519 | 82 | 320 | 1.0 | 2.0 | 0.00 | 0.01 | 0.01 | 74 | 1012.9 |
| 20260903000050 | 83 | 0 | 0.0 | 2.0 | 0.00 | 0.01 | 0.01 | 72 | 1012.8 |
| 20260902235518 | 84 | 0 | 0.0 | 2.0 | 0.00 | 0.01 | 0.01 | 70 | 1013.0 |
| 20260902235021 | 85 | 0 | 0.0 | 2.0 | 0.00 | 0.01 | 0.01 | 69 | 1013.0 |
| 20260902234542 | 85 | 252 | 1.0 | 2.0 | 0.00 | 0.01 | 0.01 | 69 | 1012.8 |
| 20260902234019 | 86 | 264 | 0.0 | 2.0 | 0.00 | 0.01 | 0.01 | 66 | 1012.8 |
| 20260902233520 | 86 | 250 | 1.0 | 2.0 | 0.00 | 0.01 | 0.01 | 66 | 1012.9 |
| 20260902233047 | 86 | 324 | 1.0 | 3.0 | 0.00 | 0.01 | 0.01 | 65 | 1012.9 |
| 20260902232520 | 86 | 257 | 1.0 | 4.0 | 0.00 | 0.01 | 0.01 | 65 | 1012.8 |
| 20260902232016 | 86 | 301 | 1.0 | 4.0 | 0.00 | 0.01 | 0.01 | 64 | 1012.8 |
| 20260902231540 | 86 | 300 | 2.0 | 8.0 | 0.00 | 0.01 | 0.01 | 65 | 1012.9 |
| 20260902231019 | 86 | 307 | 2.0 | 8.0 | 0.00 | 0.01 | 0.01 | 64 | 1012.8 |
| 20260902230516 | 86 | 259 | 3.0 | 8.0 | 0.00 | 0.01 | 0.01 | 64 | 1012.9 |
| 20260902230049 | 86 | 244 | 3.0 | 9.0 | 0.00 | 0.01 | 0.01 | 65 | 1012.9 |
| 20260902225518 | 86 | 255 | 3.0 | 9.0 | 0.00 | 0.01 | 0.01 | 65 | 1013.1 |
| 20260902225021 | 87 | 271 | 3.0 | 10.0 | 0.00 | 0.01 | 0.01 | 66 | 1013.0 |
| 20260902224539 | 87 | 298 | 2.0 | 10.0 | 0.00 | 0.01 | 0.01 | 65 | 1013.0 |
| 20260902224020 | 87 | 249 | 3.0 | 8.0 | 0.00 | 0.01 | 0.01 | 65 | 1013.1 |
| 20260902223520 | 86 | 270 | 3.0 | 8.0 | 0.00 | 0.01 | 0.01 | 65 | 1013.1 |
| 20260902223036 | 87 | 250 | 3.0 | 8.0 | 0.00 | 0.01 | 0.01 | 66 | 1013.1 |
| 20260902222519 | 86 | 242 | 4.0 | 9.0 | 0.00 | 0.01 | 0.01 | 66 | 1013.1 |
| 20260902222016 | 85 | 305 | 4.0 | 9.0 | 0.00 | 0.01 | 0.01 | 66 | 1013.1 |
| 20260902221534 | 86 | 273 | 3.0 | 9.0 | 0.00 | 0.01 | 0.01 | 66 | 1013.2 |
| 20260902221018 | 86 | 280 | 2.0 | 9.0 | 0.00 | 0.01 | 0.01 | 66 | 1013.2 |
| 20260902220518 | 86 | 291 | 4.0 | 9.0 | 0.00 | 0.01 | 0.01 | 66 | 1013.2 |
| 20260902220049 | 86 | 307 | 3.0 | 7.0 | 0.00 | 0.01 | 0.01 | 67 | 1013.2 |
| 20260902215520 | 86 | 298 | 3.0 | 7.0 | 0.00 | 0.01 | 0.01 | 67 | 1013.0 |
| 20260902215018 | 86 | 308 | 3.0 | 8.0 | 0.00 | 0.01 | 0.01 | 66 | 1013.0 |
| 20260902214558 | 86 | 246 | 4.0 | 8.0 | 0.00 | 0.01 | 0.01 | 66 | 1013.2 |
| 20260902214018 | 86 | 244 | 3.0 | 8.0 | 0.00 | 0.01 | 0.01 | 66 | 1013.2 |
| 20260902213520 | 86 | 247 | 4.0 | 10.0 | 0.00 | 0.01 | 0.01 | 66 | 1013.2 |
| 20260902213038 | 86 | 288 | 5.0 | 11.0 | 0.00 | 0.01 | 0.01 | 67 | 1013.3 |
| 20260902212523 | 86 | 254 | 5.0 | 11.0 | 0.00 | 0.01 | 0.01 | 66 | 1013.3 |
| 20260902212018 | 86 | 264 | 6.0 | 11.0 | 0.00 | 0.01 | 0.01 | 66 | 1013.3 |
| 20260902211535 | 86 | 267 | 5.0 | 11.0 | 0.00 | 0.01 | 0.01 | 65 | 1013.2 |
| 20260902211021 | 86 | 269 | 6.0 | 11.0 | 0.00 | 0.01 | 0.01 | 65 | 1013.4 |
| 20260902210519 | 86 | 241 | 4.0 | 11.0 | 0.00 | 0.01 | 0.01 | 65 | 1013.3 |
| 20260902210042 | 87 | 238 | 4.0 | 11.0 | 0.00 | 0.01 | 0.01 | 66 | 1013.4 |
| 20260902205519 | 86 | 304 | 5.0 | 11.0 | 0.00 | 0.01 | 0.01 | 66 | 1013.3 |
| 20260902205018 | 87 | 317 | 4.0 | 12.0 | 0.00 | 0.01 | 0.01 | 64 | 1013.4 |
| 20260902204539 | 87 | 257 | 6.0 | 12.0 | 0.00 | 0.01 | 0.01 | 65 | 1013.2 |
| 20260902204018 | 87 | 263 | 5.0 | 11.0 | 0.00 | 0.01 | 0.01 | 66 | 1013.4 |
| 20260902203519 | 86 | 252 | 4.0 | 9.0 | 0.00 | 0.01 | 0.01 | 66 | 1013.2 |
| 20260902203040 | 87 | 230 | 4.0 | 9.0 | 0.00 | 0.01 | 0.01 | 67 | 1013.3 |
| 20260902202520 | 87 | 254 | 3.0 | 8.0 | 0.00 | 0.01 | 0.01 | 67 | 1013.4 |
| 20260902202020 | 87 | 257 | 3.0 | 11.0 | 0.00 | 0.01 | 0.01 | 67 | 1013.4 |
| 20260902201541 | 86 | 296 | 5.0 | 11.0 | 0.00 | 0.01 | 0.01 | 67 | 1013.3 |
| 20260902201018 | 86 | 252 | 4.0 | 10.0 | 0.00 | 0.01 | 0.01 | 67 | 1013.3 |
| 20260902200518 | 86 | 275 | 4.0 | 9.0 | 0.00 | 0.01 | 0.01 | 67 | 1013.4 |
| 20260902200041 | 86 | 240 | 3.0 | 10.0 | 0.00 | 0.01 | 0.01 | 67 | 1013.4 |
| 20260902195516 | 86 | 263 | 3.0 | 10.0 | 0.00 | 0.01 | 0.01 | 67 | 1013.4 |
| 20260902195022 | 86 | 173 | 3.0 | 10.0 | 0.00 | 0.01 | 0.01 | 66 | 1013.5 |
| 20260902194539 | 86 | 183 | 5.0 | 11.0 | 0.00 | 0.01 | 0.01 | 66 | 1013.5 |
| 20260902194019 | 87 | 227 | 3.0 | 12.0 | 0.00 | 0.01 | 0.01 | 65 | 1013.5 |
| 20260902193521 | 86 | 166 | 6.0 | 12.0 | 0.00 | 0.01 | 0.01 | 65 | 1013.4 |
| 20260902193038 | 87 | 201 | 2.0 | 7.0 | 0.00 | 0.01 | 0.01 | 68 | 1013.5 |
| 20260902192516 | 85 | 223 | 4.0 | 9.0 | 0.00 | 0.01 | 0.01 | 67 | 1013.6 |
| 20260902192018 | 85 | 284 | 3.0 | 9.0 | 0.00 | 0.01 | 0.01 | 68 | 1013.5 |
| 20260902191540 | 85 | 177 | 3.0 | 9.0 | 0.00 | 0.01 | 0.01 | 67 | 1013.7 |
| 20260902191018 | 84 | 198 | 3.0 | 9.0 | 0.00 | 0.01 | 0.01 | 67 | 1013.6 |
| 20260902190518 | 84 | 289 | 4.0 | 7.0 | 0.00 | 0.01 | 0.01 | 68 | 1013.7 |
| 20260902190040 | 84 | 154 | 2.0 | 6.0 | 0.00 | 0.01 | 0.01 | 70 | 1013.7 |
| 20260902185522 | 83 | 158 | 2.0 | 6.0 | 0.00 | 0.01 | 0.01 | 69 | 1013.7 |
| 20260902185021 | 83 | 132 | 2.0 | 6.0 | 0.00 | 0.01 | 0.01 | 69 | 1013.6 |
| 20260902184544 | 83 | 197 | 2.0 | 7.0 | 0.00 | 0.01 | 0.01 | 70 | 1013.7 |
| 20260902184021 | 82 | 221 | 3.0 | 7.0 | 0.00 | 0.01 | 0.01 | 69 | 1013.8 |
| 20260902183518 | 82 | 211 | 3.0 | 6.0 | 0.00 | 0.01 | 0.01 | 71 | 1013.8 |
| 20260902183044 | 82 | 182 | 3.0 | 5.0 | 0.00 | 0.01 | 0.01 | 69 | 1013.8 |
| 20260902182521 | 82 | 186 | 2.0 | 5.0 | 0.00 | 0.01 | 0.01 | 70 | 1013.8 |
| 20260902182019 | 81 | 169 | 1.0 | 7.0 | 0.00 | 0.01 | 0.01 | 70 | 1013.8 |
| 20260902181542 | 81 | 165 | 3.0 | 8.0 | 0.00 | 0.01 | 0.01 | 71 | 1013.9 |
| 20260902181024 | 81 | 142 | 3.0 | 8.0 | 0.00 | 0.01 | 0.01 | 70 | 1013.9 |
| 20260902180520 | 81 | 168 | 4.0 | 7.0 | 0.00 | 0.01 | 0.01 | 70 | 1014.0 |
| 20260902180039 | 81 | 148 | 3.0 | 7.0 | 0.00 | 0.01 | 0.01 | 71 | 1014.2 |
| 20260902175522 | 81 | 182 | 3.0 | 6.0 | 0.00 | 0.01 | 0.01 | 69 | 1014.2 |
| 20260902175021 | 81 | 204 | 3.0 | 9.0 | 0.00 | 0.01 | 0.01 | 69 | 1014.3 |